STARLINK-36869

Last updated on Fri Mar 27 2026 00:02:06 GMT+0000 (Coordinated Universal Time)

1 67954U 26037Y 26085.33341407 .00082653 00000+0 13996-2 0 9998 2 67954 42.9986 98.6945 0000881 253.0853 106.9910 15.50584195 5863
UTC large
Height (km)
Speed (km/s)
/
Latitude / Longitude
Inclination (degrees)
Orbital Period (minutes)
Azimuth
Elevation
Range (km)
Doppler Factor

Next 0 passes for location: London (51.5072 / 0.1276)

Sorry there are no passes over London.